Flag Weather past 2 weeks in Taichung, Taiwan

Now
73 °F

Fog.


Feels Like: 72 °F
Forecast: 73 / 88 °F
Wind: 9 mph from Northeast

Location: Chiang Kai Shek

Current Time: Nov 28, 2014 at 9:54:13 PM

Latest Report: Nov 28, 2014 at 9:30 PM


Visibility: 2 mi

Pressure: 29.98 "Hg

Humidity: 89%

Dew point: 70 °F

Location of TaichungLocation

Historic Weather in Taichung — Graph

°F

Taichung temperature yesterday

Maximum temperature yesterday: 77 °F (at 9:00 AM)
Minimum temperature yesterday: 72 °F (at 1:00 AM)
Average temperature yesterday: 74 °F

Past Weeks' High & Low Weather Summary

 TemperatureHumidityPressure
High84 °F (Nov 23, 12:30 PM)94% (Nov 16, 5:00 AM)30.24 "Hg (Nov 16, 5:00 AM)
Low63 °F (Nov 17, 8:30 PM)48% (Nov 23, 1:30 PM)29.89 "Hg (Nov 25, 1:30 PM)
Average71 °F76%30.05 "Hg
* Reported Nov 13 8:00 PM — Nov 28 8:30 PM, Taichung, Weather by CustomWeather, © 2014

Note: Actual official high and low records may vary slightly from our data, if they occured in-between our weather recording intervals... More about our weather records

Advertising

Taichung weather history for previous 24 hours

 ConditionsComfort  
Time TempWeatherWind HumidityBarometerVisibility
8:30 PM
Nov 28
73 °FFog.12 mph89%29.98 "Hg2 mi
8:00 PM73 °FFog.10 mph89%29.98 "Hg2 mi
7:54 PM73 °FFog.10 mph89%29.98 "Hg2 mi
7:30 PM73 °FFog.13 mph89%29.98 "Hg3 mi
7:00 PM73 °FFog.12 mph89%29.98 "Hg3 mi
6:30 PM73 °FFog.10 mph89%30.01 "Hg2 mi
6:00 PM73 °FFog.9 mph89%29.98 "Hg2 mi
5:30 PM72 °FFog.8 mph94%29.98 "Hg2 mi
5:00 PM72 °FFog.9 mph94%29.98 "Hg2 mi
4:30 PM73 °FFog.9 mph89%29.98 "Hg2 mi
4:00 PM73 °FFog.8 mph89%29.98 "Hg2 mi
3:30 PM73 °FFog.8 mph89%29.95 "Hg2 mi
3:00 PM73 °FFog.7 mph89%29.98 "Hg2 mi
2:30 PM73 °FFog.9 mph89%29.95 "Hg1 mi
2:00 PM73 °FFog.8 mph89%29.98 "Hg2 mi
1:30 PM73 °FFog.9 mph89%29.98 "Hg3 mi
1:03 PM73 °FFog.9 mph89%29.98 "Hg3 mi
12:30 PM73 °FPartly sunny.12 mph89%29.98 "Hg4 mi
11:30 AM73 °FPartly sunny.10 mph89%30.01 "Hg4 mi
10:30 AM75 °FPartly sunny.8 mph83%30.01 "Hg4 mi
10:03 AM75 °FFog.5 mph89%30.01 "Hg3 mi
9:30 AM75 °FFog.3 mph89%30.01 "Hg3 mi
9:00 AM75 °FFog.3 mph83%30.01 "Hg3 mi
8:30 AM75 °FFog.6 mph83%30.01 "Hg3 mi
8:00 AM75 °FFog.6 mph83%30.01 "Hg3 mi
7:30 AM73 °FFog.6 mph89%30.01 "Hg3 mi
7:00 AM72 °FFog.6 mph94%29.98 "Hg3 mi
6:30 AM70 °FFog.6 mph94%29.98 "Hg3 mi
6:00 AM72 °FPartly cloudy.3 mph88%30.01 "Hg4 mi
5:30 AM72 °FPassing clouds.6 mph88%29.98 "Hg4 mi
5:00 AM72 °FFog.5 mph88%29.98 "Hg3 mi
4:30 AM72 °FFog.6 mph94%29.98 "Hg3 mi
4:00 AM72 °FFog.7 mph94%29.98 "Hg3 mi
3:30 AM70 °FFog.5 mph94%29.98 "Hg3 mi
3:00 AM70 °FFog.7 mph94%29.98 "Hg3 mi
2:30 AM68 °FPassing clouds.6 mph94%29.95 "HgN/A
2:00 AM70 °FPassing clouds.3 mph94%29.98 "HgN/A
1:30 AM72 °FPassing clouds.6 mph88%29.95 "HgN/A
1:00 AM72 °FPassing clouds.6 mph88%29.98 "HgN/A
12:30 AM75 °FPassing clouds.7 mph78%29.95 "HgN/A
12:00 AM75 °FPassing clouds.7 mph78%29.98 "HgN/A
11:30 PM
Nov 27
75 °FPassing clouds.9 mph78%29.98 "HgN/A
11:00 PM73 °FPassing clouds.8 mph83%29.98 "HgN/A
10:30 PM77 °FPassing clouds.5 mph74%29.95 "HgN/A
10:00 PM75 °FPassing clouds.6 mph78%29.95 "HgN/A
9:30 PM77 °FPassing clouds.8 mph74%29.95 "HgN/A
9:00 PM75 °FLight rain. Partly cloudy.9 mph78%29.95 "HgN/A
Weather by CustomWeather, © 2014

See weather overviewHow to use our weather pages